Tracking 18843 objects as of 20-November-2017
HD Live streaming from Space Station
objects crossing your sky now

USA 144 DEB

Track USA 144 DEB now!
10-day predictions


NORAD ID: 25746
Int'l Code: 1999-028C
Perigee: 2,664.4 km
Apogee: 3,168.3 km
Inclination: 63.4 °
Period: 148.5 minutes
Semi major axis: 9287 km
RCS: Unknown
Launch date: May 22, 1999
Source: United States (US)
Launch site: AIR FORCE WESTERN TEST RANGE (AFWTR)

Note: This is SATELLITE DEBRIS
aabbcc
Your satellite tracking list
Your tracking list is empty




NASA's NSSDC Master Catalog

Two Line Element Set (TLE):
1 25746U 99028C   17323.77000104 0.00000000  00000-0  00000-0 0    00
2 25746  63.4344 291.8709 0271315 299.7072  60.2928  9.69984854    00
Source of the keplerian elements: McCants